| time (UTC) | temp F | wind direction | speed MPH | gust MPH | rain 1hr in | rain 24hr in | rain mn in | humidity % | barometer mb |
| 20260505100039 | 51 | 218 | 1.0 | 3.0 | 0.00 | 0.03 | 0.00 | 75 | 1003.6 |
| 20260505095516 | 51 | 188 | 1.0 | 4.0 | 0.00 | 0.03 | 0.00 | 75 | 1003.3 |
| 20260505095022 | 51 | 253 | 2.0 | 4.0 | 0.00 | 0.03 | 0.00 | 74 | 1003.1 |
| 20260505094521 | 51 | 284 | 1.0 | 5.0 | 0.00 | 0.03 | 0.00 | 75 | 1002.9 |
| 20260505094019 | 51 | 209 | 1.0 | 4.0 | 0.00 | 0.03 | 0.00 | 75 | 1002.7 |
| 20260505093519 | 51 | 202 | 1.0 | 2.0 | 0.00 | 0.03 | 0.00 | 75 | 1002.7 |
| 20260505093019 | 51 | 327 | 1.0 | 3.0 | 0.00 | 0.03 | 0.00 | 75 | 1002.7 |
| 20260505092520 | 51 | 232 | 1.0 | 2.0 | 0.00 | 0.03 | 0.00 | 76 | 1002.7 |
| 20260505092021 | 51 | 134 | 1.0 | 3.0 | 0.00 | 0.03 | 0.00 | 76 | 1002.5 |
| 20260505091520 | 51 | 180 | 1.0 | 3.0 | 0.00 | 0.03 | 0.00 | 77 | 1002.7 |
| 20260505091020 | 51 | 53 | 1.0 | 2.0 | 0.00 | 0.03 | 0.00 | 77 | 1002.7 |
| 20260505090520 | 51 | 179 | 1.0 | 5.0 | 0.00 | 0.03 | 0.00 | 77 | 1002.5 |
| 20260505090017 | 51 | 311 | 1.0 | 3.0 | 0.00 | 0.03 | 0.00 | 77 | 1002.1 |
| 20260505085521 | 51 | 286 | 1.0 | 5.0 | 0.00 | 0.03 | 0.00 | 77 | 1002.1 |
| 20260505085023 | 51 | 150 | 1.0 | 4.0 | 0.00 | 0.03 | 0.00 | 78 | 1002.3 |
| 20260505084540 | 51 | 165 | 1.0 | 2.0 | 0.00 | 0.03 | 0.00 | 78 | 1002.3 |
| 20260505084044 | 51 | 183 | 1.0 | 3.0 | 0.00 | 0.03 | 0.00 | 77 | 1002.0 |
| 20260505083520 | 51 | 303 | 1.0 | 4.0 | 0.00 | 0.03 | 0.00 | 77 | 1001.9 |
| 20260505083020 | 52 | 149 | 1.0 | 2.0 | 0.00 | 0.03 | 0.00 | 77 | 1001.8 |
| 20260505082522 | 52 | 145 | 1.0 | 3.0 | 0.00 | 0.03 | 0.00 | 77 | 1001.7 |
| 20260505082038 | 52 | 321 | 1.0 | 4.0 | 0.00 | 0.03 | 0.00 | 77 | 1001.7 |
| 20260505081539 | 52 | 292 | 1.0 | 3.0 | 0.00 | 0.03 | 0.00 | 77 | 1001.7 |
| 20260505081018 | 52 | 173 | 2.0 | 4.0 | 0.00 | 0.03 | 0.00 | 76 | 1001.5 |
| 20260505080520 | 53 | 296 | 2.0 | 6.0 | 0.00 | 0.03 | 0.00 | 76 | 1001.7 |
| 20260505080019 | 53 | 312 | 1.0 | 5.0 | 0.00 | 0.03 | 0.00 | 77 | 1001.4 |
| 20260505075518 | 53 | 276 | 2.0 | 8.0 | 0.00 | 0.03 | 0.00 | 77 | 1001.4 |
| 20260505075043 | 53 | 139 | 1.0 | 4.0 | 0.00 | 0.03 | 0.00 | 79 | 1001.5 |
| 20260505074519 | 53 | 293 | 2.0 | 4.0 | 0.00 | 0.03 | 0.00 | 79 | 1001.5 |
| 20260505074038 | 53 | 146 | 1.0 | 3.0 | 0.00 | 0.03 | 0.00 | 79 | 1001.4 |
| 20260505073518 | 53 | 326 | 2.0 | 5.0 | 0.00 | 0.03 | 0.00 | 79 | 1001.5 |
| 20260505073021 | 53 | 79 | 2.0 | 6.0 | 0.00 | 0.03 | 0.00 | 81 | 1001.6 |
| 20260505072518 | 54 | 250 | 2.0 | 6.0 | 0.00 | 0.03 | 0.00 | 81 | 1001.5 |
| 20260505072018 | 54 | 245 | 2.0 | 4.0 | 0.00 | 0.03 | 0.00 | 81 | 1001.6 |
| 20260505071559 | 54 | 200 | 2.0 | 5.0 | 0.00 | 0.03 | 0.00 | 81 | 1001.5 |
| 20260505071020 | 54 | 225 | 2.0 | 7.0 | 0.00 | 0.03 | 0.00 | 81 | 1001.5 |
| 20260505070520 | 55 | 267 | 2.0 | 5.0 | 0.00 | 0.03 | 0.00 | 81 | 1001.2 |
| 20260505070019 | 55 | 178 | 2.0 | 5.0 | 0.00 | 0.03 | 0.00 | 81 | 1000.9 |
| 20260505065520 | 55 | 217 | 2.0 | 6.0 | 0.00 | 0.03 | 0.00 | 82 | 1001.0 |
| 20260505065039 | 55 | 290 | 2.0 | 7.0 | 0.00 | 0.03 | 0.00 | 84 | 1001.1 |
| 20260505064519 | 56 | 299 | 1.0 | 3.0 | 0.00 | 0.03 | 0.00 | 85 | 1000.9 |
| 20260505064020 | 56 | 299 | 1.0 | 4.0 | 0.00 | 0.03 | 0.00 | 86 | 1000.7 |
| 20260505063520 | 56 | 159 | 2.0 | 4.0 | 0.00 | 0.03 | 0.00 | 86 | 1000.8 |
| 20260505063019 | 56 | 151 | 1.0 | 3.0 | 0.00 | 0.03 | 0.00 | 87 | 1000.9 |
| 20260505062519 | 56 | 153 | 2.0 | 4.0 | 0.00 | 0.03 | 0.00 | 87 | 1000.9 |
| 20260505062021 | 57 | 277 | 1.0 | 6.0 | 0.00 | 0.03 | 0.00 | 87 | 1000.9 |
| 20260505061522 | 57 | 3 | 2.0 | 5.0 | 0.00 | 0.03 | 0.00 | 88 | 1001.0 |
| 20260505061016 | 57 | 268 | 2.0 | 4.0 | 0.00 | 0.03 | 0.00 | 88 | 1001.0 |
| 20260505060516 | 57 | 262 | 2.0 | 8.0 | 0.00 | 0.03 | 0.00 | 88 | 1000.9 |
| 20260505060021 | 57 | 292 | 2.0 | 6.0 | 0.00 | 0.03 | 0.00 | 88 | 1000.6 |
| 20260505055519 | 57 | 214 | 1.0 | 4.0 | 0.00 | 0.03 | 0.00 | 89 | 1000.4 |
| 20260505055021 | 57 | 269 | 1.0 | 5.0 | 0.00 | 0.03 | 0.00 | 88 | 1000.4 |
| 20260505054521 | 57 | 319 | 1.0 | 2.0 | 0.00 | 0.03 | 0.00 | 88 | 1000.2 |
| 20260505054020 | 57 | 106 | 1.0 | 2.0 | 0.00 | 0.03 | 0.00 | 87 | 1000.1 |
| 20260505053520 | 57 | 343 | 1.0 | 2.0 | 0.00 | 0.03 | 0.00 | 87 | 1000.2 |
| 20260505053017 | 58 | 292 | 1.0 | 2.0 | 0.00 | 0.03 | 0.00 | 87 | 1000.2 |
| 20260505052520 | 58 | 324 | 1.0 | 2.0 | 0.00 | 0.03 | 0.00 | 86 | 1000.2 |
| 20260505052017 | 58 | 207 | 1.0 | 2.0 | 0.00 | 0.03 | 0.00 | 86 | 1000.1 |
| 20260505051517 | 58 | 126 | 1.0 | 2.0 | 0.00 | 0.03 | 0.00 | 85 | 1000.2 |
| 20260505051022 | 59 | 328 | 1.0 | 2.0 | 0.00 | 0.03 | 0.00 | 85 | 1000.2 |
| 20260505050520 | 59 | 76 | 1.0 | 2.0 | 0.00 | 0.03 | 0.00 | 85 | 1000.1 |
| 20260505041520 | 61 | 327 | 2.0 | 5.0 | 0.00 | 0.03 | 0.00 | 82 | 999.7 |
| 20260505041019 | 61 | 326 | 1.0 | 3.0 | 0.00 | 0.03 | 0.00 | 81 | 999.6 |
| 20260505040519 | 61 | 319 | 2.0 | 4.0 | 0.00 | 0.03 | 0.00 | 81 | 999.5 |
| 20260505040018 | 62 | 241 | 1.0 | 4.0 | 0.00 | 0.03 | 0.00 | 80 | 999.5 |
| 20260505035520 | 62 | 300 | 2.0 | 4.0 | 0.00 | 0.03 | 0.03 | 79 | 999.5 |
| 20260505035020 | 62 | 227 | 1.0 | 4.0 | 0.00 | 0.03 | 0.03 | 79 | 999.4 |
| 20260505034518 | 62 | 243 | 2.0 | 4.0 | 0.00 | 0.03 | 0.03 | 79 | 999.5 |
| 20260505034040 | 62 | 252 | 2.0 | 6.0 | 0.00 | 0.03 | 0.03 | 79 | 999.3 |
| 20260505033516 | 62 | 248 | 2.0 | 4.0 | 0.00 | 0.03 | 0.03 | 79 | 999.0 |
| 20260505033056 | 62 | 211 | 1.0 | 3.0 | 0.00 | 0.03 | 0.03 | 79 | 999.0 |
| 20260505032520 | 62 | 212 | 2.0 | 4.0 | 0.00 | 0.03 | 0.03 | 78 | 998.9 |
| 20260505032020 | 62 | 207 | 2.0 | 4.0 | 0.00 | 0.03 | 0.03 | 78 | 998.9 |
| 20260505031519 | 62 | 200 | 2.0 | 4.0 | 0.02 | 0.03 | 0.03 | 79 | 998.9 |
| 20260505031019 | 62 | 211 | 2.0 | 4.0 | 0.03 | 0.03 | 0.03 | 79 | 998.8 |
| 20260505030520 | 62 | 209 | 1.0 | 4.0 | 0.03 | 0.03 | 0.03 | 78 | 998.8 |
| 20260505030020 | 62 | 199 | 2.0 | 4.0 | 0.03 | 0.03 | 0.03 | 78 | 998.6 |
| 20260505025519 | 62 | 196 | 1.0 | 3.0 | 0.03 | 0.03 | 0.03 | 78 | 998.5 |
| 20260505025019 | 62 | 197 | 2.0 | 4.0 | 0.03 | 0.03 | 0.03 | 78 | 998.5 |
| 20260505024520 | 62 | 207 | 2.0 | 6.0 | 0.03 | 0.03 | 0.03 | 79 | 998.5 |
| 20260505024019 | 62 | 203 | 3.0 | 8.0 | 0.03 | 0.03 | 0.03 | 79 | 998.6 |
| 20260505023521 | 62 | 199 | 3.0 | 6.0 | 0.03 | 0.03 | 0.03 | 80 | 998.7 |
| 20260505023041 | 63 | 202 | 3.0 | 7.0 | 0.03 | 0.03 | 0.03 | 80 | 998.8 |
| 20260505022520 | 64 | 216 | 3.0 | 6.0 | 0.03 | 0.03 | 0.03 | 80 | 998.9 |
| 20260505022020 | 66 | 201 | 5.0 | 11.0 | 0.03 | 0.03 | 0.03 | 76 | 998.5 |
| 20260505021540 | 67 | 205 | 3.0 | 7.0 | 0.02 | 0.02 | 0.02 | 69 | 999.6 |
| 20260505021023 | 68 | 254 | 3.0 | 9.0 | 0.00 | 0.00 | 0.00 | 67 | 999.5 |
| 20260505020520 | 68 | 245 | 2.0 | 6.0 | 0.00 | 0.00 | 0.00 | 67 | 999.0 |
| 20260505020021 | 68 | 238 | 3.0 | 6.0 | 0.00 | 0.00 | 0.00 | 67 | 998.5 |
| 20260505015522 | 68 | 213 | 3.0 | 8.0 | 0.00 | 0.00 | 0.00 | 68 | 998.1 |
| 20260505015020 | 68 | 207 | 3.0 | 7.0 | 0.00 | 0.00 | 0.00 | 67 | 998.0 |
| 20260505014519 | 68 | 201 | 3.0 | 9.0 | 0.00 | 0.00 | 0.00 | 67 | 998.0 |
| 20260505014017 | 68 | 217 | 2.0 | 5.0 | 0.00 | 0.00 | 0.00 | 67 | 998.0 |
| 20260505013522 | 68 | 196 | 2.0 | 6.0 | 0.00 | 0.00 | 0.00 | 67 | 997.9 |
| 20260505013040 | 69 | 209 | 2.0 | 5.0 | 0.00 | 0.00 | 0.00 | 66 | 997.9 |
| 20260505012521 | 69 | 216 | 2.0 | 5.0 | 0.00 | 0.00 | 0.00 | 66 | 997.9 |
| 20260505012023 | 69 | 222 | 2.0 | 4.0 | 0.00 | 0.00 | 0.00 | 66 | 997.9 |
| 20260505011521 | 69 | 214 | 2.0 | 5.0 | 0.00 | 0.00 | 0.00 | 65 | 997.8 |
| 20260505011021 | 70 | 211 | 2.0 | 4.0 | 0.00 | 0.00 | 0.00 | 64 | 997.7 |
| 20260505010518 | 70 | 203 | 3.0 | 9.0 | 0.00 | 0.00 | 0.00 | 63 | 997.6 |
| 20260505010039 | 70 | 218 | 3.0 | 6.0 | 0.00 | 0.00 | 0.00 | 61 | 997.7 |
| 20260505005519 | 70 | 210 | 3.0 | 8.0 | 0.00 | 0.00 | 0.00 | 60 | 997.7 |
| 20260505005018 | 70 | 202 | 3.0 | 5.0 | 0.00 | 0.00 | 0.00 | 58 | 997.7 |
| 20260505004523 | 70 | 218 | 2.0 | 5.0 | 0.00 | 0.00 | 0.00 | 57 | 997.7 |
| 20260505004021 | 70 | 220 | 2.0 | 5.0 | 0.00 | 0.00 | 0.00 | 56 | 997.7 |
| 20260505003521 | 69 | 230 | 2.0 | 4.0 | 0.00 | 0.00 | 0.00 | 55 | 997.6 |
| 20260505003020 | 69 | 187 | 2.0 | 4.0 | 0.00 | 0.00 | 0.00 | 54 | 997.5 |
| 20260505002520 | 70 | 313 | 1.0 | 3.0 | 0.00 | 0.00 | 0.00 | 53 | 997.4 |
| 20260505002058 | 70 | 196 | 2.0 | 6.0 | 0.00 | 0.00 | 0.00 | 53 | 997.3 |
| 20260505001518 | 70 | 337 | 1.0 | 4.0 | 0.00 | 0.00 | 0.00 | 53 | 997.2 |
| 20260505001020 | 70 | 335 | 1.0 | 3.0 | 0.00 | 0.00 | 0.00 | 53 | 997.3 |
| 20260505000520 | 71 | 296 | 1.0 | 2.0 | 0.00 | 0.00 | 0.00 | 52 | 997.3 |
| 20260505000019 | 71 | 338 | 1.0 | 3.0 | 0.00 | 0.00 | 0.00 | 51 | 997.3 |
| 20260504235518 | 71 | 8 | 0.0 | 2.0 | 0.00 | 0.00 | 0.00 | 51 | 997.4 |
| 20260504235020 | 72 | 11 | 1.0 | 2.0 | 0.00 | 0.00 | 0.00 | 51 | 997.5 |
| 20260504234519 | 72 | 5 | 1.0 | 3.0 | 0.00 | 0.00 | 0.00 | 51 | 997.5 |
| 20260504234020 | 72 | 45 | 1.0 | 2.0 | 0.00 | 0.00 | 0.00 | 51 | 997.6 |
| 20260504233517 | 72 | 42 | 1.0 | 1.0 | 0.00 | 0.00 | 0.00 | 50 | 997.7 |
| 20260504233035 | 72 | 24 | 1.0 | 2.0 | 0.00 | 0.00 | 0.00 | 50 | 997.7 |
| 20260504232519 | 72 | 14 | 1.0 | 3.0 | 0.00 | 0.00 | 0.00 | 50 | 997.8 |
| 20260504232019 | 73 | 8 | 1.0 | 2.0 | 0.00 | 0.00 | 0.00 | 49 | 997.9 |
| 20260504231543 | 73 | 323 | 1.0 | 5.0 | 0.00 | 0.00 | 0.00 | 48 | 997.9 |
| 20260504231039 | 73 | 288 | 2.0 | 9.0 | 0.00 | 0.00 | 0.00 | 48 | 998.0 |
| 20260504230520 | 73 | 289 | 2.0 | 6.0 | 0.00 | 0.00 | 0.00 | 48 | 998.1 |
| 20260504230021 | 74 | 320 | 1.0 | 3.0 | 0.00 | 0.00 | 0.00 | 47 | 998.2 |
| 20260504225519 | 74 | 293 | 3.0 | 7.0 | 0.00 | 0.00 | 0.00 | 47 | 998.3 |
| 20260504225021 | 74 | 300 | 3.0 | 7.0 | 0.00 | 0.00 | 0.00 | 47 | 998.4 |
| 20260504224520 | 74 | 307 | 2.0 | 7.0 | 0.00 | 0.00 | 0.00 | 46 | 998.4 |
| 20260504224021 | 75 | 276 | 2.0 | 5.0 | 0.00 | 0.00 | 0.00 | 46 | 998.5 |
| 20260504223537 | 75 | 217 | 2.0 | 6.0 | 0.00 | 0.00 | 0.00 | 46 | 998.6 |
| 20260504223057 | 75 | 294 | 2.0 | 8.0 | 0.00 | 0.00 | 0.00 | 46 | 998.7 |
| 20260504222524 | 75 | 275 | 2.0 | 9.0 | 0.00 | 0.00 | 0.00 | 46 | 998.7 |
| 20260504222020 | 75 | 269 | 3.0 | 10.0 | 0.00 | 0.00 | 0.00 | 46 | 998.7 |
| 20260504221522 | 75 | 276 | 2.0 | 6.0 | 0.00 | 0.00 | 0.00 | 45 | 998.7 |
| 20260504221020 | 75 | 297 | 2.0 | 6.0 | 0.00 | 0.00 | 0.00 | 45 | 998.7 |
| 20260504220522 | 75 | 336 | 2.0 | 8.0 | 0.00 | 0.00 | 0.00 | 45 | 998.8 |
| 20260504220045 | 75 | 249 | 2.0 | 5.0 | 0.00 | 0.00 | 0.00 | 45 | 998.9 |
| 20260504215523 | 75 | 236 | 2.0 | 4.0 | 0.00 | 0.00 | 0.00 | 44 | 998.9 |
| 20260504215038 | 75 | 267 | 3.0 | 7.0 | 0.00 | 0.00 | 0.00 | 45 | 998.9 |
| 20260504214518 | 75 | 281 | 2.0 | 5.0 | 0.00 | 0.00 | 0.00 | 44 | 999.0 |
| 20260504214021 | 75 | 231 | 3.0 | 7.0 | 0.00 | 0.00 | 0.00 | 44 | 999.0 |
| 20260504213518 | 75 | 278 | 3.0 | 10.0 | 0.00 | 0.00 | 0.00 | 44 | 999.2 |
| 20260504213018 | 75 | 256 | 3.0 | 8.0 | 0.00 | 0.00 | 0.00 | 43 | 999.1 |
| 20260504212522 | 75 | 244 | 2.0 | 8.0 | 0.00 | 0.00 | 0.00 | 44 | 999.2 |
| 20260504212043 | 75 | 250 | 3.0 | 7.0 | 0.00 | 0.00 | 0.00 | 43 | 999.3 |
| 20260504211522 | 75 | 259 | 3.0 | 11.0 | 0.00 | 0.00 | 0.00 | 43 | 999.4 |
| 20260504211019 | 76 | 255 | 4.0 | 9.0 | 0.00 | 0.00 | 0.00 | 42 | 999.5 |
| 20260504210520 | 75 | 236 | 2.0 | 6.0 | 0.00 | 0.00 | 0.00 | 42 | 999.5 |
| 20260504210019 | 76 | 256 | 4.0 | 12.0 | 0.00 | 0.00 | 0.00 | 42 | 999.5 |
| 20260504205519 | 76 | 264 | 4.0 | 10.0 | 0.00 | 0.00 | 0.00 | 43 | 999.6 |
| 20260504205019 | 76 | 242 | 3.0 | 10.0 | 0.00 | 0.00 | 0.00 | 43 | 999.7 |
| 20260504204520 | 75 | 240 | 3.0 | 10.0 | 0.00 | 0.00 | 0.00 | 42 | 999.8 |
| 20260504204019 | 75 | 275 | 4.0 | 10.0 | 0.00 | 0.00 | 0.00 | 41 | 999.8 |
| 20260504203522 | 76 | 250 | 4.0 | 10.0 | 0.00 | 0.00 | 0.00 | 40 | 999.8 |
| 20260504203021 | 76 | 227 | 4.0 | 11.0 | 0.00 | 0.00 | 0.00 | 42 | 999.8 |
| 20260504202519 | 76 | 195 | 4.0 | 8.0 | 0.00 | 0.00 | 0.00 | 41 | 999.8 |
| 20260504202019 | 76 | 167 | 2.0 | 6.0 | 0.00 | 0.00 | 0.00 | 41 | 999.8 |
| 20260504201519 | 76 | 242 | 4.0 | 9.0 | 0.00 | 0.00 | 0.00 | 41 | 999.8 |
| 20260504201022 | 76 | 251 | 4.0 | 8.0 | 0.00 | 0.00 | 0.00 | 41 | 999.7 |
| 20260504200519 | 76 | 256 | 3.0 | 8.0 | 0.00 | 0.00 | 0.00 | 42 | 999.8 |
| 20260504200019 | 76 | 255 | 4.0 | 11.0 | 0.00 | 0.00 | 0.00 | 41 | 999.8 |
| 20260504195521 | 76 | 273 | 3.0 | 9.0 | 0.00 | 0.00 | 0.00 | 42 | 999.8 |
| 20260504195019 | 76 | 235 | 4.0 | 10.0 | 0.00 | 0.00 | 0.00 | 42 | 999.8 |
| 20260504194541 | 76 | 247 | 4.0 | 8.0 | 0.00 | 0.00 | 0.00 | 41 | 999.9 |
| 20260504194016 | 77 | 282 | 4.0 | 10.0 | 0.00 | 0.00 | 0.00 | 41 | 999.9 |
| 20260504193520 | 77 | 224 | 3.0 | 7.0 | 0.00 | 0.00 | 0.00 | 40 | 1000.0 |
| 20260504193019 | 77 | 263 | 3.0 | 9.0 | 0.00 | 0.00 | 0.00 | 40 | 1000.0 |
| 20260504192521 | 77 | 224 | 4.0 | 11.0 | 0.00 | 0.00 | 0.00 | 39 | 1000.0 |
| 20260504192024 | 77 | 261 | 3.0 | 9.0 | 0.00 | 0.00 | 0.00 | 39 | 1000.0 |
| 20260504191523 | 77 | 216 | 4.0 | 10.0 | 0.00 | 0.00 | 0.00 | 38 | 1000.0 |
| 20260504191020 | 77 | 231 | 3.0 | 8.0 | 0.00 | 0.00 | 0.00 | 39 | 1000.1 |
| 20260504190020 | 77 | 199 | 3.0 | 8.0 | 0.00 | 0.00 | 0.00 | 39 | 1000.0 |
| 20260504185520 | 77 | 230 | 3.0 | 7.0 | 0.00 | 0.00 | 0.00 | 39 | 1000.0 |
| 20260504185018 | 77 | 216 | 4.0 | 9.0 | 0.00 | 0.00 | 0.00 | 38 | 1000.0 |
| 20260504184517 | 77 | 223 | 3.0 | 9.0 | 0.00 | 0.00 | 0.00 | 40 | 1000.1 |
| 20260504184017 | 76 | 221 | 4.0 | 9.0 | 0.00 | 0.00 | 0.00 | 39 | 1000.0 |
| 20260504183523 | 76 | 257 | 4.0 | 9.0 | 0.00 | 0.00 | 0.00 | 38 | 1000.0 |
| 20260504183023 | 76 | 258 | 4.0 | 10.0 | 0.00 | 0.00 | 0.00 | 37 | 1000.2 |
| 20260504182519 | 76 | 238 | 4.0 | 9.0 | 0.00 | 0.00 | 0.00 | 38 | 1000.2 |
| 20260504182017 | 76 | 280 | 4.0 | 9.0 | 0.00 | 0.00 | 0.00 | 38 | 1000.3 |
| 20260504181521 | 76 | 243 | 3.0 | 7.0 | 0.00 | 0.00 | 0.00 | 37 | 1000.4 |
| 20260504181021 | 76 | 237 | 3.0 | 8.0 | 0.00 | 0.00 | 0.00 | 37 | 1000.3 |
| 20260504180520 | 75 | 262 | 3.0 | 8.0 | 0.00 | 0.00 | 0.00 | 37 | 1000.3 |
| 20260504180022 | 75 | 225 | 3.0 | 8.0 | 0.00 | 0.00 | 0.00 | 37 | 1000.4 |
| 20260504175518 | 76 | 245 | 3.0 | 7.0 | 0.00 | 0.00 | 0.00 | 37 | 1000.4 |
| 20260504175018 | 76 | 254 | 4.0 | 8.0 | 0.00 | 0.00 | 0.00 | 37 | 1000.6 |
| 20260504174518 | 76 | 219 | 4.0 | 9.0 | 0.00 | 0.00 | 0.00 | 37 | 1000.7 |
| 20260504174018 | 76 | 240 | 4.0 | 10.0 | 0.00 | 0.00 | 0.00 | 37 | 1000.7 |
| 20260504173520 | 76 | 222 | 3.0 | 6.0 | 0.00 | 0.00 | 0.00 | 37 | 1000.8 |
| 20260504173019 | 76 | 237 | 3.0 | 8.0 | 0.00 | 0.00 | 0.00 | 38 | 1000.9 |
| 20260504172518 | 76 | 252 | 4.0 | 12.0 | 0.00 | 0.00 | 0.00 | 38 | 1001.0 |
| 20260504172018 | 76 | 252 | 4.0 | 11.0 | 0.00 | 0.00 | 0.00 | 37 | 1001.0 |
| 20260504171518 | 76 | 242 | 3.0 | 9.0 | 0.00 | 0.00 | 0.00 | 39 | 1001.1 |
| 20260504171020 | 76 | 277 | 3.0 | 6.0 | 0.00 | 0.00 | 0.00 | 38 | 1001.2 |
| 20260504170519 | 75 | 300 | 4.0 | 11.0 | 0.00 | 0.00 | 0.00 | 39 | 1001.2 |
| 20260504151017 | 69 | 207 | 2.0 | 6.0 | 0.00 | 0.00 | 0.00 | 55 | 1002.6 |
| 20260504150518 | 68 | 205 | 2.0 | 6.0 | 0.00 | 0.00 | 0.00 | 55 | 1002.7 |
| 20260504141018 | 63 | 182 | 2.0 | 5.0 | 0.00 | 0.00 | 0.00 | 64 | 1003.4 |
| 20260504140518 | 63 | 204 | 2.0 | 4.0 | 0.00 | 0.00 | 0.00 | 65 | 1003.5 |
| 20260504130519 | 58 | 196 | 2.0 | 4.0 | 0.00 | 0.00 | 0.00 | 74 | 1004.1 |
| 20260504110517 | 47 | 201 | 2.0 | 4.0 | 0.00 | 0.00 | 0.00 | 91 | 1003.6 |
| 20260504100520 | 47 | 204 | 2.0 | 4.0 | 0.00 | 0.00 | 0.00 | 91 | 1003.5 |